EUS29JP EINN-EGCC

Flight info

Callsign EUS29JP
Flight time N/A
Altitude 35000
Route AGINI3A AGINI DCT BOFUM Q37 MALUD
Aircraft A320/M-SDE3FGHIRWY/LB1

Departure

Time N/A
Airport Shannon Airport (EINN)

Arrival

Time 2026-05-04 06:05
Airport Manchester Airport (EGCC)
Time Latitude Longitude Altitude Speed Heading
2026-05-04 06:00 53.24170 -2.49635 2986 ft 133 kts 50°
2026-05-04 06:01 53.24754 -2.48438 2800 ft 132 kts 50°
2026-05-04 06:01 53.25334 -2.47250 2628 ft 132 kts 50°
2026-05-04 06:03 53.29347 -2.39005 1421 ft 130 kts 50°
2026-05-04 06:03 53.29914 -2.37836 1255 ft 130 kts 50°
2026-05-04 06:05 53.33801 -2.29838 207 ft 74 kts 50°
2026-05-04 06:05 53.34210 -2.28970 216 ft 41 kts 51°
2026-05-04 06:05 53.34385 -2.28641 215 ft 33 kts 35°
2026-05-04 06:06 53.34550 -2.28506 226 ft 24 kts 22°
2026-05-04 06:06 53.34697 -2.28408 232 ft 22 kts 30°
2026-05-04 06:06 53.34798 -2.28221 239 ft 21 kts 51°
2026-05-04 06:06 53.34896 -2.28018 238 ft 23 kts 51°
2026-05-04 06:07 53.35020 -2.28049 238 ft 21 kts 321°
2026-05-04 06:07 53.35144 -2.28200 237 ft 24 kts 342°
2026-05-04 06:07 53.35309 -2.28154 238 ft 23 kts 35°
2026-05-04 06:07 53.35423 -2.27975 243 ft 23 kts 44°
2026-05-04 06:08 53.35537 -2.27791 248 ft 23 kts 44°
2026-05-04 06:08 53.35654 -2.27597 248 ft 25 kts 49°
2026-05-04 06:08 53.35764 -2.27371 248 ft 26 kts 51°
2026-05-04 06:08 53.35837 -2.27229 248 ft 2 kts 34°
2026-05-04 06:09 53.35848 -2.27216 248 ft 2 kts 34°
2026-05-04 06:09 53.35856 -2.27207 248 ft 1 kts 34°
2026-05-04 06:11 53.35914 -2.27121 248 ft 0 kts 64°